Regional Weather Roundup
Issued by NWS

Home | Current Version | Previous Version | Graphics & Text | Print | Product List | Glossary On
Versions: 1 2 3 4 5 6 7 8 9 10 11 12 13 14 15 16 17 18 19 20 21 22 23 24 25 26 27 28 29 30 31 32 33 34 35 36 37 38 39 40 41 42 43 44 45 46 47 48 49 50
000
ASUS43 KLOT 250403
RWRIL

ILLINOIS REGIONAL WEATHER ROUNDUP
NATIONAL WEATHER SERVICE CHICAGO/ROMEOVILLE IL
1100 PM CDT SUN JUL 24 2016

NOTE: "FAIR" INDICATES FEW OR NO CLOUDS BELOW 12,000 FEET WITH NO
SIGNIFICANT WEATHER AND/OR OBSTRUCTIONS TO VISIBILITY.

* THESE STATIONS ARE NOT UNDER NWS QUALITY CONTROL. THEY ALSO MAY NOT
  REPORT WEATHER SUCH AS PRECIPITATION OR FOG.

ILZ001-002-007-009-015-016-024-250500-
NORTHWEST ILLINOIS

CITY           SKY/WX    TMP DP  RH WIND       PRES   REMARKS
MOLINE         CLOUDY    78  68  71 NW6       29.93R HX  80
STERLING*      CLOUDY    76  70  82 NW5       29.93R
SAVANNA*       MOCLDY    76  68  78 NW6       29.92S
$$

ILZ003-004-008-010-011-017-018-250500-
NORTH CENTRAL ILLINOIS

CITY           SKY/WX    TMP DP  RH WIND       PRES   REMARKS
ROCKFORD       CLOUDY    78  69  73 NW6       29.92R HX  80
FREEPORT*      CLOUDY    73  68  84 W7        29.94R
ROCHELLE*      CLOUDY    77  72  82 NW6       29.91F
DE KALB*       CLOUDY    79  69  71 CALM      29.91F HX  81
$$

ILZ005-006-012>014-019>023-250500-
NORTHEAST ILLINOIS

CITY           SKY/WX    TMP DP  RH WIND       PRES   REMARKS
CHICAGO-OHARE  CLOUDY    78  71  79 SW7       29.89S HX  80
CHICAGO-MIDWAY CLOUDY    77  68  73 SW14      29.90R
AURORA         CLOUDY    76  70  82 SE6       29.91S
LANSING*       CLOUDY    74  68  81 SW12      29.94R
WAUKEGAN       CLOUDY    79  71  76 SW5       29.86S HX  82
DUPAGE AIRPORT CLOUDY    77  67  71 S7        29.91R
KANKAKEE*      CLOUDY    70  66  88 S12G17    29.98R
WHEELING       CLOUDY    79  71  76 SW6       29.90R HX  82
MORRIS*        CLOUDY    73  68  86 S7        29.91R
NORTHERLY ISL    N/A     77  67  71 SW7         N/A
$$

LMZ740>746-250500-
SOUTHERN LAKE MICHIGAN

STATION/POSITION SKY/WX   TEMP    WIND        PRES    VSBY  WAVE
                          AIR SEA DIR/SP/G                  HT/PER
                          (F)     (DEG/KT/KT) (MB)    (MI)  (FT/S)
SOUTHERN BUOY              76 72  220/ 16/ 17 1010.3          2/ 4
WILMETTE HARBOR            70 64  250/  8/ 10   N/A           1/ 3
HARRISON CRIB              83     210/ 14/ 15   N/A
BURNHAM HARBOR             79     250/  6/  9   N/A
CALUMET HARBOR                                1011.7
BURNS HARBOR               76     190/  8/ 14 1012.9R
MICHIGAN CITY              76     220/  4/  4   N/A
MICHIGAN CITY 6N           75 74  240/  4/  8   N/A           4/ 5
ST. JOSEPH                 74 74  270/  8/ 27 1011.6F         3/ 4
$$

ILZ025>027-034>036-040-047-049-050-058-095>099-250500-
WEST-CENTRAL ILLINOIS

CITY           SKY/WX    TMP DP  RH WIND       PRES   REMARKS
QUINCY         MOCLDY    78  71  79 N6        29.95R HX  80
MACOMB*        LGT RAIN  75  73  95 SW5       29.96R
JACKSONVILLE*  CLOUDY    83  78  83 N9G18     29.91F HX  94
PITTSFIELD*    CLOUDY    82  79  91 NW5       29.93R HX  91
$$

ILZ028>032-037-038-041>044-048-051>054-059>061-250500-
CENTRAL ILLINOIS

CITY           SKY/WX    TMP DP  RH WIND       PRES   REMARKS
PONTIAC        CLOUDY    74  72  95 SW9       29.97R
BLOOMINGTON    TSTM      71  69  93 S14       29.97F
DECATUR        CLOUDY    80  73  79 NE23G30   29.98R THUNDER HX  84
PEORIA         CLOUDY    80  76  87 S6        29.93S THUNDER HX  86
LACON*         CLOUDY    76  69  79 S6        29.92S
LINCOLN*       CLOUDY    75  74  94 E13       29.97R
SPRINGFIELD    TSTM      77  74  90 NW9       29.94F VSB 3/4
TAYLORVILLE    CLOUDY    80  74  81 NW7G22    29.95R THUNDER HX  85
$$

ILZ033-039-045-046-055>057-062-063-250500-
EAST-CENTRAL ILLINOIS

CITY           SKY/WX    TMP DP  RH WIND       PRES   REMARKS
CHAMPAIGN      TSTM      71  69  93 NW15G29   30.08R FOG
MATTOON        CLEAR     82  76  81 SW5       29.98R HX  89
PARIS*         MOCLDY    75  67  77 N12G23    30.03R
$$

ILZ079-100>102-250500-
SOUTHWEST ILLINOIS

CITY           SKY/WX    TMP DP  RH WIND       PRES   REMARKS
ALTON          CLEAR     83  78  83 S10       29.91S HX  92
BELLEVILLE     CLEAR     83  81  93 CALM      29.93R HX  96
CAHOKIA*       CLEAR     86  77  74 S5        29.92R HX  97
SPARTA*        CLEAR     82  76  82 S7        29.94F HX  89
$$

ILZ064>066-069>071-074>076-080>082-084>086-088>090-092>094-250500-
SOUTH-CENTRAL ILLINOIS

CITY           SKY/WX    TMP DP  RH WIND       PRES   REMARKS
CARBONDALE     CLEAR     79  75  87 S7        29.93F HX  83
CAIRO*         CLOUDY    81  78  92 S5        29.95S HX  89
EFFINGHAM*     CLEAR     82  77  85 CALM      29.99R HX  89
MARION         CLEAR     82  77  83 S6        29.94F HX  91
MT. VERNON     CLOUDY    81  72  74 CALM      29.95S HX  84
CENTRALIA*     CLEAR     80  77  90 S3        29.95R HX  85
SALEM*         CLEAR     82  75  80 CALM      29.96R HX  88
METROPOLIS*    PTCLDY    78  77  96 CALM      29.96F FOG     HX  81
$$

ILZ067-068-072-073-078-083-087-091-250500-
SOUTHEAST ILLINOIS

CITY           SKY/WX    TMP DP  RH WIND       PRES   REMARKS
LAWRENCEVILLE  CLEAR     81  77  88 W3        29.96R HX  88
FLORA*         CLEAR     80  77  91 CALM      29.96R HX  85
FAIRFIELD*     CLEAR     80  77  92 CALM      29.94R HX  85
HARRISBURG*    CLEAR     81  78  92 CALM      29.95F HX  89
ROBINSON*      CLEAR     77  76  98 CALM      29.97R
CARMI*         CLEAR     79  78  98 S5        29.94F HX  82
$$

ABBREVIATIONS USED IN REMARKS
   TC - TEMPERATURE IN CELSIUS
  WCI - WIND CHILL INDEX
   HX - HEAT INDEX
  VSB - VISIBILITY
$$





USA.gov is the U.S. government's official web portal to all federal, state and local government web resources and services.